TimeEST,TemperatureF,Dew PointF,Humidity,Sea Level PressureIn,VisibilityMPH,Wind Direction,Wind SpeedMPH,Gust SpeedMPH,PrecipitationIn,Events,Conditions,WindDirDegrees,DateUTC
12:53 AM,63.0,54.0,72,29.86,10.0,SW,21.9,32.2,N/A,,Overcast,220,2012-12-04 05:53:00
1:53 AM,63.0,54.0,72,29.86,10.0,SSW,18.4,26.5,0.00,,Overcast,210,2012-12-04 06:53:00
2:10 AM,62.6,55.4,77,29.87,10.0,SW,21.9,28.8,N/A,,Overcast,220,2012-12-04 07:10:00
2:53 AM,62.1,55.0,78,29.87,10.0,SW,15.0,-,0.00,Rain,Light Rain,230,2012-12-04 07:53:00
3:04 AM,62.6,55.4,77,29.88,10.0,SW,13.8,-,0.00,,Overcast,220,2012-12-04 08:04:00
3:53 AM,61.0,55.9,83,29.88,10.0,SSW,12.7,-,0.00,,Overcast,210,2012-12-04 08:53:00
4:53 AM,57.9,54.0,87,29.89,8.0,West,10.4,-,0.02,Rain,Light Rain,280,2012-12-04 09:53:00
5:28 AM,55.4,51.8,88,29.91,7.0,NW,15.0,20.7,0.00,Rain,Light Rain,310,2012-12-04 10:28:00
5:53 AM,53.1,48.9,86,29.92,6.0,WNW,9.2,-,0.00,Rain,Light Rain,300,2012-12-04 10:53:00
6:11 AM,53.6,48.2,82,29.93,7.0,WNW,8.1,-,0.00,,Overcast,290,2012-12-04 11:11:00
6:23 AM,51.8,48.2,88,29.93,6.0,WNW,11.5,-,N/A,Rain,Light Rain,290,2012-12-04 11:23:00
6:53 AM,51.1,46.9,86,29.96,7.0,West,6.9,-,0.00,,Overcast,280,2012-12-04 11:53:00
7:53 AM,48.9,45.0,86,29.99,9.0,West,9.2,-,0.00,Rain,Light Rain,280,2012-12-04 12:53:00
8:53 AM,48.0,44.1,86,30.00,9.0,WSW,3.5,-,0.01,,Overcast,240,2012-12-04 13:53:00
9:53 AM,48.0,41.0,77,30.01,10.0,West,6.9,-,N/A,,Overcast,270,2012-12-04 14:53:00
10:53 AM,48.0,37.9,68,30.01,10.0,West,9.2,-,N/A,,Overcast,260,2012-12-04 15:53:00
11:53 AM,48.9,37.0,64,30.00,10.0,West,11.5,-,N/A,,Overcast,270,2012-12-04 16:53:00
12:53 PM,48.9,36.0,61,29.99,10.0,West,12.7,-,N/A,,Overcast,270,2012-12-04 17:53:00
1:53 PM,51.1,36.0,56,30.00,10.0,West,17.3,-,N/A,,Mostly Cloudy,270,2012-12-04 18:53:00
2:53 PM,52.0,35.1,53,30.00,10.0,West,12.7,-,N/A,,Mostly Cloudy,270,2012-12-04 19:53:00
3:53 PM,51.1,28.9,43,30.01,10.0,West,16.1,20.7,N/A,,Mostly Cloudy,270,2012-12-04 20:53:00
4:53 PM,48.9,30.0,48,30.03,10.0,West,11.5,-,N/A,,Mostly Cloudy,260,2012-12-04 21:53:00
5:53 PM,46.0,30.9,56,30.06,10.0,West,11.5,-,N/A,,Mostly Cloudy,270,2012-12-04 22:53:00
6:53 PM,45.0,30.9,58,30.07,10.0,WSW,8.1,-,N/A,,Scattered Clouds,250,2012-12-04 23:53:00
7:53 PM,44.1,32.0,63,30.07,10.0,WSW,9.2,-,N/A,,Scattered Clouds,250,2012-12-05 00:53:00
8:53 PM,43.0,33.1,68,30.09,10.0,West,11.5,-,N/A,,Scattered Clouds,270,2012-12-05 01:53:00
9:53 PM,42.1,28.9,60,30.12,10.0,WNW,11.5,-,N/A,,Scattered Clouds,290,2012-12-05 02:53:00
10:53 PM,39.9,28.0,63,30.13,10.0,NW,9.2,18.4,N/A,,Scattered Clouds,310,2012-12-05 03:53:00
11:53 PM,37.0,27.0,67,30.16,10.0,WNW,8.1,-,N/A,,Scattered Clouds,300,2012-12-05 04:53:00